Regional Weather Roundup
Issued by NWS

Home | Current Version | Previous Version | Graphics & Text | Print | Product List | Glossary On
Versions: 1 2 3 4 5 6 7 8 9 10 11 12 13 14 15 16 17 18 19 20 21 22 23 24 25 26 27 28 29 30 31 32 33 34 35 36 37 38 39 40 41 42 43 44 45 46 47 48 49 50
000
ASUS45 KBOU 011407
RWRCO

WEATHER ROUNDUP FOR COLORADO
NATIONAL WEATHER SERVICE DENVER/BOULDER CO
800 AM MDT MON JUN 01 2015

NOTE: "FAIR" INDICATES FEW OR NO CLOUDS BELOW 12000 FEET WITH NO
SIGNIFICANT WEATHER AND/OR OBSTRUCTIONS TO VISIBILITY.

COZ001>005-013-030-031-011500-
...NORTHWEST COLORADO...

CITY           SKY/WX    TMP DP  RH WIND       PRES   REMARKS
CRAIG          PTSUNNY   55  45  68 NE3       30.17R
HAYDEN         PTSUNNY   55  41  58 NE10      30.19F
MEEKER         MOSUNNY   61  44  53 E12       30.18S
MOUNT WERNER   NOT AVBL
STEAMBOAT SPGS PTSUNNY   50  43  75 CALM      30.23S
WALDEN         CLOUDY    50  37  62 E3        30.30F
$$

COZ006>008-011-011500-
...WEST CENTRAL VALLEYS...

CITY           SKY/WX    TMP DP  RH WIND       PRES   REMARKS
GRAND JUNCTION MOSUNNY   66  44  45 SE15      30.08R
MONTROSE       MOSUNNY   66  40  38 VRB5      30.19R
EAGLE          MOSUNNY   63  52  67 CALM      30.29S
RIFLE          MOSUNNY   61  48  62 VRB5      30.16S
DELTA          MOSUNNY   64  44  48 CALM      30.15S
NUCLA          MOSUNNY   63  37  39 SE3       30.20S
$$

COZ017>023-064>068-011500-
...SOUTHWEST COLORADO...

CITY           SKY/WX    TMP DP  RH WIND       PRES   REMARKS
DURANGO        PTSUNNY   60  42  51 NE17      30.25R
CORTEZ         MOSUNNY   66  44  45 NE10      30.18S
PAGOSA SPRINGS CLOUDY    58  36  44 NW10G22   30.36R
TELLURIDE      MOSUNNY   58  37  45 SE6       30.41S
WOLF CREEK PAS NOT AVBL
$$

COZ009-010-012-014-032>034-037-058>063-011500-
...CENTRAL COLORADO...

CITY           SKY/WX    TMP DP  RH WIND       PRES   REMARKS
ASPEN          SUNNY     54  37  52 N3        30.28F
BUENA VISTA    SUNNY     55  36  48 NW3       30.34S
COPPER MTN     NOT AVBL
BERTHOUD PASS  FAIR      37  32  81 NW17G23   30.59S
COTTONWOOD PAS NOT AVBL
GUNNISON       MOSUNNY   52  37  58 SE5       30.40R
KREMMLING      MOSUNNY   50  41  71 CALM      30.32F
LEADVILLE      SUNNY     47  33  58 CALM      30.43S
SALIDA         SUNNY     56  39  52 CALM      30.39S
SUNLIGHT       PTSUNNY   52  34  50 CALM      30.50R
WILKERSON PASS MOSUNNY   50  27  40 W5        30.55S
$$

COZ069>075-011500-
...SAN LUIS VALLEY/SANGRE DE CRISTO MOUNTAINS...

CITY           SKY/WX    TMP DP  RH WIND       PRES   REMARKS
ALAMOSA        SUNNY     55  41  59 CALM      30.33R
LA VETA PASS   SUNNY    N/A N/A N/A MISG      30.45S
SAGUACHE       SUNNY     52  37  58 NW12      30.36R
$$

COZ035-036-038>040-011500-
...NORTHERN COLORADO FRONT RANGE...

CITY           SKY/WX    TMP DP  RH WIND       PRES   REMARKS
DENVER INTL AP MOSUNNY   66  48  52 SW10      30.10S
DMNS CITY PARK   N/A     66  42  42 S6G13     30.11S
AURORA         NOT AVBL
FRONT RANGE AP NOT AVBL
ERIE MUNI ARPT MOSUNNY   61  54  77 CALM      30.10S
BOULDER MUN AP MOSUNNY   63  50  63 CALM      30.10S
CENTENNIAL     MOSUNNY   68  46  45 S5        30.13F
BROOMFIELD     MOSUNNY   64  50  59 CALM      30.13S
FORT COLLINS   SUNNY     59  52  77 CALM      30.10F
LONGMONT       SUNNY     66  53  63 CALM      30.11S
$$

COZ041-046-047-076>085-087-088-011500-
...PIKES PEAK/PALMER DIVIDE AND SOUTHERN FOOTHILLS...

CITY           SKY/WX    TMP DP  RH WIND       PRES   REMARKS
COLO. SPRINGS  MOSUNNY   66  48  52 N3        30.18S
A. F. ACADEMY  NOT AVBL
ELLICOTT       MOSUNNY  N/A N/A N/A NE3       30.16S
FALCON         MOSUNNY   67  41  38 CALM      30.22S
FORT CARSON    NOT AVBL
LIMON          SUNNY     64  51  62 CALM      30.13S
MONUMENT HILL  SUNNY     64  43  45 E3        30.22F
TRINIDAD       SUNNY     65  49  56 W14       30.15F
$$

COZ042>045-048>051-090-091-011500-
...NORTHEAST COLORADO...

CITY           SKY/WX    TMP DP  RH WIND       PRES   REMARKS
GREELEY ARPT   SUNNY     59  54  82 CALM      30.09S
AKRON          SUNNY     67  54  63 SW8       30.08S
BURLINGTON     SUNNY     66  53  63 W6        30.08R
WRAY           SUNNY     61  60  96 CALM      30.05S
STERLING       SUNNY     59  55  88 CALM      30.06S
HOLYOKE        NOT AVBL
FORT MORGAN    SUNNY     62  -9   5 W5        30.08F
$$

COZ086-089-092>099-011500-
...SOUTHEAST COLORADO...

CITY           SKY/WX    TMP DP  RH WIND       PRES   REMARKS
PUEBLO         MOSUNNY   63  50  62 W7        30.10S
LA JUNTA       SUNNY     65  55  70 W9        30.08R
LAMAR          SUNNY     63  55  75 CALM      30.06R
SPRINGFIELD      N/A     68  56  65 SW12      30.08S
$$



USA.gov is the U.S. government's official web portal to all federal, state and local government web resources and services.